Location: Kosice
(48.7170°N, 21.2500°E)
Time: 19:13:27
(UTC+02:00)

ISS - Pass Details

Date: 24 March 2019
Orbit: 408 x 410 km, 51.6° (Epoch: 20 April)

Event Time Altitude Azimuth Distance (km) Brightness Sun altitude
Rises 19:28:47 0° 244° (WSW) 2,331 0.7 -16.1°
Reaches altitude 10° 19:30:52 10° 243° (WSW) 1,472 -0.4 -16.5°
Maximum altitude 19:34:10 79° 156° (SSE) 422 -3.9 -17.0°
Enters shadow 19:35:01 47° 79° (E) 556 -3.5 -17.1°
